KM4KBD Weather Reports


Display with metric or nautical units.
time (UTC)temp
F
wind
direction
speed
MPH
gust
MPH
rain 1hr
in
rain 24hr
in
rain mn
in
humidity
%
barometer
mb
20260906044154 73 352 0.0 0.0 0.00 0.00 0.00 92 1019.5
20260906043650 73 349 0.0 0.0 0.00 0.00 0.00 92 1019.7
20260906043146 74 349 0.0 0.0 0.00 0.00 0.00 92 1019.5
20260906042646 74 348 0.0 0.0 0.00 0.00 0.00 91 1019.4
20260906042145 74 65 2.0 2.0 0.00 0.00 0.00 91 1019.4
20260906041641 74 358 0.0 0.0 0.00 0.00 0.00 91 1019.3
20260906041136 74 1 0.0 0.0 0.00 0.00 0.00 91 1019.3
20260906040631 74 343 0.0 0.0 0.00 0.00 0.00 90 1019.0
20260906040127 75 54 1.0 1.0 0.00 0.00 0.00 89 1018.8
20260906035622 75 52 2.0 2.0 0.00 0.18 0.18 90 1018.5
20260906035118 75 25 1.0 1.0 0.00 0.18 0.18 90 1019.0
20260906034617 75 6 0.0 0.0 0.00 0.18 0.18 88 1018.9
20260906034112 75 6 0.0 0.0 0.00 0.18 0.18 88 1018.9
20260906033608 75 13 0.0 0.0 0.00 0.18 0.18 89 1018.6
20260906033103 75 13 0.0 0.0 0.00 0.18 0.18 89 1018.7
20260906032600 75 20 0.0 0.0 0.00 0.18 0.18 88 1018.8
20260906032059 75 13 0.0 1.0 0.00 0.18 0.18 89 1018.8
20260906031555 75 3 0.0 0.0 0.00 0.18 0.18 88 1018.8
20260906031050 75 354 0.0 0.0 0.00 0.18 0.18 88 1018.7
20260906030550 75 35 1.0 1.0 0.00 0.18 0.18 90 1018.9
20260906030050 75 348 0.0 0.0 0.00 0.18 0.18 89 1018.3
20260906025549 75 348 0.0 0.0 0.00 0.18 0.18 88 1018.5
20260906025048 75 348 0.0 0.0 0.00 0.18 0.18 88 1018.8
20260906024544 76 355 0.0 0.0 0.00 0.18 0.18 87 1018.6
20260906024043 76 340 0.0 0.0 0.00 0.18 0.18 86 1018.7
20260906023540 76 3 0.0 0.0 0.00 0.18 0.18 86 1018.8
20260906023034 76 8 0.0 0.0 0.00 0.18 0.18 87 1018.8
20260906022529 76 7 0.0 0.0 0.00 0.18 0.18 87 1018.8
20260906022025 76 29 1.0 1.0 0.00 0.18 0.18 87 1018.8
20260906021520 76 0 0.0 0.0 0.00 0.18 0.18 86 1018.8
20260906021014 77 354 0.0 0.0 0.00 0.18 0.18 85 1018.6
20260906020514 77 346 0.0 0.0 0.00 0.18 0.18 85 1018.6
20260906020013 77 13 0.0 0.0 0.00 0.18 0.18 84 1018.8
20260906015513 77 345 0.0 1.0 0.00 0.18 0.18 83 1018.8
20260906015012 78 344 0.0 0.0 0.00 0.18 0.18 82 1018.9
20260906014507 78 344 0.0 0.0 0.00 0.18 0.18 82 1018.6
20260906014003 78 344 0.0 0.0 0.00 0.18 0.18 81 1018.8
20260906013458 78 344 0.0 0.0 0.00 0.18 0.18 81 1018.4
20260906012954 78 343 0.0 0.0 0.00 0.18 0.18 81 1018.6
20260906012448 79 337 0.0 1.0 0.00 0.18 0.18 80 1018.4
20260906011947 79 346 0.0 0.0 0.00 0.18 0.18 79 1018.1
20260906011443 79 11 0.0 0.0 0.00 0.18 0.18 78 1018.4
20260906010938 80 13 0.0 0.0 0.00 0.18 0.18 78 1018.3
20260906010434 80 354 0.0 0.0 0.00 0.18 0.18 76 1018.4
20260906005930 80 352 0.0 0.0 0.00 0.18 0.18 76 1018.5
20260906005429 80 21 1.0 2.0 0.00 0.18 0.18 75 1018.5
20260906004928 81 0 0.0 0.0 0.00 0.18 0.18 75 1018.4
20260906004422 81 53 1.0 2.0 0.00 0.18 0.18 75 1018.4
20260906003918 81 348 0.0 0.0 0.00 0.18 0.18 75 1018.3
20260906003413 82 350 0.0 0.0 0.00 0.18 0.18 74 1018.0
20260906002909 82 7 0.0 0.0 0.00 0.18 0.18 73 1017.9
20260906002408 82 17 0.0 0.0 0.00 0.18 0.18 73 1017.8
20260906001904 83 344 0.0 0.0 0.00 0.18 0.18 72 1018.3
20260906001359 84 6 0.0 0.0 0.00 0.18 0.18 71 1017.9
20260906000859 84 20 1.0 1.0 0.00 0.18 0.18 71 1018.1
20260906000400 84 18 1.0 1.0 0.00 0.18 0.18 70 1018.0
20260905235855 85 318 1.0 1.0 0.00 0.18 0.18 69 1018.0
20260905235349 86 67 1.0 2.0 0.00 0.18 0.18 67 1018.3
20260905234844 86 348 0.0 1.0 0.00 0.18 0.18 68 1018.4
20260905234339 87 2 0.0 0.0 0.00 0.18 0.18 68 1018.3
20260905233834 87 350 0.0 0.0 0.00 0.18 0.18 66 1018.1
20260905233329 88 6 0.0 0.0 0.00 0.18 0.18 69 1018.3
20260905232828 88 7 0.0 0.0 0.00 0.18 0.18 67 1018.1
20260905232325 89 346 0.0 0.0 0.00 0.18 0.18 64 1018.5
20260905231820 89 335 1.0 1.0 0.00 0.18 0.18 63 1018.6
20260905231315 90 336 0.0 0.0 0.00 0.18 0.18 64 1018.1
20260905230812 92 340 0.0 0.0 0.00 0.18 0.18 59 1018.4
20260905230310 91 342 0.0 0.0 0.00 0.18 0.18 59 1018.4
20260905225809 91 340 0.0 1.0 0.00 0.18 0.18 60 1018.4
20260905225306 91 324 2.0 2.0 0.00 0.18 0.18 59 1018.3
20260905224804 92 301 1.0 2.0 0.00 0.18 0.18 60 1018.0
20260905224259 93 321 1.0 1.0 0.00 0.18 0.18 55 1018.3
20260905223755 92 325 1.0 1.0 0.00 0.18 0.18 56 1018.0
20260905223252 91 314 2.0 2.0 0.00 0.18 0.18 57 1018.4
20260905222747 92 328 3.0 3.0 0.00 0.18 0.18 57 1018.3
20260905222246 92 279 1.0 2.0 0.00 0.18 0.18 57 1018.1
20260905221742 92 308 1.0 2.0 0.00 0.18 0.18 56 1018.1
20260905221239 92 300 3.0 3.0 0.00 0.18 0.18 57 1018.3
20260905220734 93 302 3.0 5.0 0.00 0.18 0.18 55 1018.4
20260905220230 92 297 5.0 6.0 0.00 0.18 0.18 55 1018.3
20260905215729 93 307 4.0 5.0 0.00 0.18 0.18 54 1018.3
20260905215225 94 290 3.0 3.0 0.00 0.18 0.18 54 1018.1
20260905214721 94 333 1.0 1.0 0.00 0.18 0.18 52 1018.3
20260905214216 94 311 2.0 2.0 0.00 0.18 0.18 53 1018.5
20260905213712 93 322 1.0 2.0 0.00 0.18 0.18 52 1018.4
20260905213208 93 321 4.0 5.0 0.00 0.18 0.18 52 1018.4
20260905212703 92 308 2.0 2.0 0.00 0.18 0.18 54 1018.4
20260905212202 92 294 3.0 5.0 0.00 0.18 0.18 55 1018.3
20260905211656 91 303 6.0 7.0 0.00 0.18 0.18 56 1018.3
20260905211152 92 316 2.0 3.0 0.00 0.18 0.18 55 1018.0
20260905210649 92 280 3.0 3.0 0.00 0.18 0.18 55 1018.3
20260905210148 92 320 3.0 3.0 0.00 0.18 0.18 56 1018.3
20260905205647 92 315 5.0 6.0 0.00 0.18 0.18 57 1018.0
20260905205141 92 336 2.0 3.0 0.00 0.18 0.18 55 1018.0
20260905204640 92 304 3.0 3.0 0.00 0.18 0.18 57 1018.0
20260905204137 92 325 4.0 5.0 0.00 0.18 0.18 56 1018.3
20260905203637 91 284 5.0 6.0 0.00 0.18 0.18 56 1018.4
20260905203132 92 279 5.0 5.0 0.00 0.18 0.18 57 1018.4
20260905202627 92 312 3.0 3.0 0.00 0.18 0.18 52 1018.3
20260905202123 92 276 4.0 5.0 0.00 0.18 0.18 54 1018.5
20260905201618 91 301 5.0 8.0 0.00 0.18 0.18 57 1018.7
20260905201117 92 301 4.0 5.0 0.00 0.18 0.18 56 1018.9
20260905200613 91 244 3.0 3.0 0.00 0.18 0.18 56 1018.9
20260905200109 91 293 6.0 8.0 0.00 0.18 0.18 54 1018.7
20260905195602 91 273 5.0 6.0 0.00 0.18 0.18 54 1018.8
20260905195057 91 280 2.0 2.0 0.00 0.18 0.18 57 1018.9
20260905194557 91 259 3.0 3.0 0.00 0.18 0.18 55 1018.9
20260905194056 92 330 5.0 6.0 0.00 0.18 0.18 56 1019.1
20260905193551 92 263 6.0 8.0 0.00 0.18 0.18 54 1019.1
20260905193047 92 299 3.0 3.0 0.00 0.18 0.18 54 1019.0
20260905192542 92 287 1.0 2.0 0.00 0.18 0.18 53 1019.2
20260905192038 93 273 5.0 6.0 0.00 0.18 0.18 54 1019.1
20260905191536 93 232 2.0 2.0 0.00 0.18 0.18 57 1019.3
20260905191035 93 245 5.0 6.0 0.00 0.18 0.18 56 1019.2
20260905190534 92 281 2.0 3.0 0.00 0.18 0.18 54 1019.4
20260905190034 92 243 4.0 5.0 0.00 0.18 0.18 52 1019.7
20260905185533 92 227 3.0 3.0 0.00 0.18 0.18 53 1019.6
20260905185033 91 292 1.0 2.0 0.00 0.18 0.18 54 1019.7
20260905184533 91 231 4.0 5.0 0.00 0.18 0.18 53 1019.8
20260905184032 91 64 3.0 5.0 0.00 0.18 0.18 56 1019.9
20260905183531 90 227 4.0 5.0 0.00 0.18 0.18 58 1020.0
20260905183027 89 273 2.0 2.0 0.00 0.18 0.18 58 1020.0
20260905182521 89 292 6.0 6.0 0.00 0.18 0.18 59 1020.3
20260905182021 89 245 4.0 5.0 0.00 0.18 0.18 60 1020.1
20260905181516 90 220 6.0 9.0 0.00 0.18 0.18 60 1020.4
20260905181015 89 110 2.0 3.0 0.00 0.18 0.18 60 1020.3
20260905180510 89 235 4.0 6.0 0.00 0.18 0.18 60 1020.5
20260905180005 89 321 1.0 1.0 0.00 0.18 0.18 59 1020.6
20260905175504 89 265 2.0 2.0 0.00 0.18 0.18 64 1020.5
20260905175000 88 102 2.0 3.0 0.00 0.18 0.18 60 1020.6
20260905174455 88 329 2.0 2.0 0.00 0.18 0.18 59 1020.6
20260905173951 89 258 3.0 3.0 0.00 0.18 0.18 59 1020.8
20260905173447 87 144 2.0 3.0 0.00 0.18 0.18 62 1020.7
20260905172942 88 25 2.0 3.0 0.00 0.18 0.18 64 1020.8
20260905172440 87 237 1.0 1.0 0.00 0.18 0.18 64 1020.6
20260905171936 87 221 3.0 3.0 0.00 0.18 0.18 63 1020.7
20260905171432 86 330 1.0 2.0 0.00 0.18 0.18 70 1020.8
20260905170929 86 248 5.0 6.0 0.00 0.18 0.18 70 1020.9
20260905170424 86 156 4.0 6.0 0.00 0.18 0.18 69 1020.8
20260905165924 85 29 1.0 2.0 0.00 0.18 0.18 68 1020.7
20260905165419 85 129 4.0 5.0 0.00 0.18 0.18 68 1020.8
20260905164915 84 37 3.0 5.0 0.00 0.18 0.18 72 1020.6
20260905164415 83 142 3.0 3.0 0.00 0.18 0.18 75 1020.5
20260905163915 84 191 3.0 3.0 0.00 0.18 0.18 76 1020.9
20260905163412 84 235 5.0 6.0 0.00 0.18 0.18 74 1020.7
20260905162908 82 256 3.0 3.0 0.00 0.18 0.18 76 1020.8
20260905162402 83 230 3.0 3.0 0.00 0.18 0.18 75 1020.8
20260905161857 83 150 6.0 8.0 0.00 0.18 0.18 73 1020.9
20260905161356 83 324 3.0 3.0 0.00 0.18 0.18 76 1020.9
20260905160855 83 3 0.0 1.0 0.00 0.18 0.18 74 1021.1
20260905160354 82 288 2.0 3.0 0.00 0.18 0.18 78 1021.3
20260905155849 82 210 2.0 2.0 0.00 0.18 0.18 75 1021.4
20260905155348 82 115 1.0 2.0 0.00 0.18 0.18 76 1021.3
20260905154848 81 149 3.0 3.0 0.00 0.18 0.18 76 1021.5
20260905154343 80 137 3.0 3.0 0.00 0.18 0.18 78 1021.2
20260905153838 80 73 2.0 2.0 0.00 0.18 0.18 78 1021.7
20260905153335 80 240 2.0 3.0 0.00 0.18 0.18 79 1021.5
20260905152835 79 39 2.0 2.0 0.00 0.18 0.18 80 1021.8
20260905152334 78 89 3.0 5.0 0.00 0.18 0.18 82 1021.7
20260905151829 78 100 2.0 3.0 0.00 0.18 0.18 85 1021.8
20260905151325 78 153 3.0 3.0 0.00 0.18 0.18 82 1021.9
20260905150824 77 356 1.0 1.0 0.00 0.18 0.18 85 1022.0
20260905150319 77 76 3.0 3.0 0.00 0.18 0.18 83 1022.1
20260905145816 76 61 1.0 2.0 0.00 0.18 0.18 86 1022.1
20260905145310 74 169 2.0 3.0 0.00 0.18 0.18 90 1022.3
20260905144809 73 77 1.0 2.0 0.00 0.18 0.18 93 1022.2
20260905144305 72 121 2.0 2.0 0.00 0.18 0.18 94 1022.2
20260905143804 72 22 1.0 1.0 0.00 0.18 0.18 96 1022.3
20260905143258 71 82 1.0 1.0 0.00 0.18 0.18 97 1022.3
20260905142756 71 55 2.0 3.0 0.00 0.18 0.18 97 1022.4
20260905142251 71 120 1.0 1.0 0.00 0.18 0.18 99 1022.3
20260905141748 71 303 1.0 1.0 0.00 0.18 0.18 98 1022.7
20260905141244 70 50 0.0 1.0 0.00 0.18 0.18 98 1022.5
20260905140739 70 20 0.0 0.0 0.00 0.18 0.18 98 1022.8
20260905140239 70 154 2.0 2.0 0.00 0.18 0.18 98 1022.8
20260905135737 70 286 1.0 1.0 0.00 0.18 0.18 99 1023.1
20260905135234 70 26 1.0 2.0 0.00 0.18 0.18 99 1022.9
20260905134733 70 116 1.0 2.0 0.00 0.18 0.18 98 1022.7
20260905134233 70 356 0.0 0.0 0.00 0.18 0.18 99 1022.9
20260905133728 70 12 0.0 1.0 0.00 0.18 0.18 99 1022.6
20260905133223 70 342 0.0 0.0 0.00 0.18 0.18 98 1022.8
20260905132721 70 176 2.0 3.0 0.05 0.18 0.18 98 1022.7
20260905132218 70 29 1.0 2.0 0.05 0.18 0.18 98 1022.9
20260905131712 70 48 1.0 1.0 0.00 0.17 0.17 97 1023.4
20260905131208 71 340 0.0 1.0 0.00 0.17 0.17 97 1022.8
20260905130707 71 127 2.0 3.0 0.07 0.17 0.17 97 1022.6
20260905130202 71 114 2.0 3.0 0.07 0.17 0.17 96 1022.5
20260905125702 71 81 2.0 2.0 0.12 0.16 0.16 96 1022.8
20260905125158 71 52 2.0 2.0 0.31 0.16 0.16 94 1022.9
20260905124654 72 73 3.0 5.0 0.42 0.14 0.14 93 1022.8
20260905124149 73 352 1.0 2.0 0.59 0.11 0.11 92 1022.7
20260905123644 74 54 3.0 6.0 0.42 0.07 0.07 90 1022.8
20260905123142 75 103 4.0 6.0 0.07 0.01 0.01 85 1022.6
20260905122641 76 0 5.0 7.0 0.00 0.00 0.00 81 1022.2
20260905122136 77 45 1.0 2.0 0.00 0.00 0.00 80 1021.7
20260905121631 76 355 2.0 2.0 0.00 0.00 0.00 82 1021.9
20260905121126 76 291 3.0 5.0 0.00 0.00 0.00 83 1021.7
20260905120625 76 75 2.0 2.0 0.00 0.00 0.00 84 1021.4
20260905120120 76 353 5.0 6.0 0.00 0.00 0.00 86 1021.8
20260905115619 75 348 3.0 5.0 0.00 0.00 0.00 91 1021.8
20260905115114 75 336 2.0 2.0 0.00 0.00 0.00 94 1021.5
20260905114614 74 3 1.0 1.0 0.00 0.00 0.00 95 1021.7
20260905114113 74 346 0.0 1.0 0.00 0.00 0.00 96 1021.3
20260905113608 74 353 2.0 3.0 0.00 0.00 0.00 96 1021.5
20260905113103 74 323 1.0 2.0 0.00 0.00 0.00 96 1021.4
20260905112558 75 34 3.0 3.0 0.00 0.00 0.00 95 1021.0
20260905112054 75 339 0.0 0.0 0.00 0.00 0.00 94 1020.5
20260905111549 75 309 0.0 1.0 0.00 0.00 0.00 94 1020.4
20260905111048 75 341 0.0 0.0 0.00 0.00 0.00 94 1020.3
20260905110547 75 340 0.0 0.0 0.00 0.00 0.00 94 1020.0
20260905110043 75 104 1.0 1.0 0.00 0.00 0.00 94 1020.1
20260905105542 75 22 1.0 1.0 0.00 0.00 0.00 95 1020.0
20260905105041 75 22 0.0 1.0 0.00 0.00 0.00 95 1020.0
20260905104538 75 330 0.0 0.0 0.00 0.00 0.00 95 1020.0
20260905104037 75 23 0.0 0.0 0.00 0.00 0.00 96 1020.0
20260905103532 74 220 1.0 1.0 0.00 0.00 0.00 96 1020.2
20260905103029 74 60 1.0 1.0 0.00 0.00 0.00 97 1020.2
20260905102524 74 75 2.0 2.0 0.00 0.00 0.00 98 1020.2
20260905102020 74 320 1.0 1.0 0.00 0.00 0.00 98 1020.1
20260905101519 74 1 0.0 0.0 0.00 0.00 0.00 97 1020.3
20260905101017 74 357 0.0 0.0 0.00 0.00 0.00 97 1020.3
20260905100514 74 8 0.0 0.0 0.00 0.00 0.00 97 1020.2
20260905100013 74 13 1.0 1.0 0.00 0.00 0.00 97 1020.1
20260905095508 74 9 0.0 0.0 0.00 0.00 0.00 97 1020.0
20260905095003 74 23 0.0 0.0 0.00 0.00 0.00 96 1020.0
20260905094458 74 24 0.0 0.0 0.00 0.00 0.00 96 1020.1
20260905093956 74 23 0.0 0.0 0.00 0.00 0.00 96 1020.0
20260905093452 74 23 0.0 0.0 0.00 0.00 0.00 96 1020.1
20260905092948 74 23 0.0 0.0 0.00 0.00 0.00 97 1019.7
20260905092444 74 20 0.0 1.0 0.00 0.00 0.00 96 1019.9
20260905091939 74 2 0.0 0.0 0.00 0.00 0.00 96 1020.1
20260905091438 75 2 0.0 0.0 0.00 0.00 0.00 96 1020.1
20260905090938 75 3 0.0 0.0 0.00 0.00 0.00 96 1020.1
20260905090433 74 359 0.0 0.0 0.00 0.00 0.00 96 1019.9
20260905085932 75 344 0.0 0.0 0.00 0.00 0.00 95 1019.8
20260905085431 75 342 0.0 0.0 0.00 0.00 0.00 95 1019.8
20260905084928 75 343 0.0 0.0 0.00 0.00 0.00 95 1019.6
20260905084427 75 338 0.0 0.0 0.00 0.00 0.00 96 1019.8
20260905083922 75 334 0.0 0.0 0.00 0.00 0.00 96 1019.9
20260905083418 74 315 0.0 0.0 0.00 0.00 0.00 96 1019.6
20260905082913 74 315 0.0 0.0 0.00 0.00 0.00 95 1019.8
20260905082410 74 315 0.0 0.0 0.00 0.00 0.00 94 1019.8
20260905081909 75 315 0.0 0.0 0.00 0.00 0.00 94 1019.8
20260905081404 75 315 0.0 0.0 0.00 0.00 0.00 94 1019.8
20260905080903 75 315 0.0 0.0 0.00 0.00 0.00 94 1019.8
20260905080358 75 315 0.0 0.0 0.00 0.00 0.00 94 1019.8
20260905075857 76 314 0.0 0.0 0.00 0.00 0.00 93 1019.8
20260905075357 76 314 0.0 1.0 0.00 0.00 0.00 93 1019.8
20260905074856 76 332 1.0 1.0 0.00 0.00 0.00 92 1019.9
20260905074352 77 319 0.0 0.0 0.00 0.00 0.00 91 1019.7
20260905073848 77 315 0.0 1.0 0.00 0.00 0.00 91 1020.1
20260905073343 77 316 0.0 0.0 0.00 0.00 0.00 91 1020.0
20260905072837 77 354 0.0 0.0 0.00 0.00 0.00 91 1020.0
20260905072332 77 31 1.0 1.0 0.00 0.00 0.00 91 1020.2
20260905071829 77 82 1.0 1.0 0.00 0.00 0.00 91 1020.1
20260905071320 77 332 0.0 1.0 0.00 0.00 0.00 91 1020.2
20260905070819 77 321 0.0 1.0 0.00 0.00 0.00 90 1020.4
20260905070316 77 342 0.0 1.0 0.00 0.00 0.00 90 1020.2
20260905065815 77 334 0.0 1.0 0.00 0.00 0.00 90 1020.6
20260905065313 77 0 1.0 1.0 0.00 0.00 0.00 90 1020.4
20260905064809 77 147 3.0 3.0 0.00 0.00 0.00 90 1020.3
20260905064304 77 136 3.0 3.0 0.00 0.00 0.00 91 1020.5
20260905063803 77 58 1.0 1.0 0.00 0.00 0.00 92 1020.7
20260905063259 77 13 1.0 1.0 0.00 0.00 0.00 92 1020.9
20260905062755 77 340 0.0 0.0 0.00 0.00 0.00 92 1020.8
20260905062254 77 327 0.0 0.0 0.00 0.00 0.00 91 1021.0
20260905061750 77 311 0.0 0.0 0.00 0.00 0.00 91 1020.7
20260905061244 77 358 0.0 0.0 0.00 0.00 0.00 91 1021.0
20260905060744 77 355 0.0 0.0 0.00 0.00 0.00 91 1021.2
20260905060241 78 338 0.0 0.0 0.00 0.00 0.00 90 1020.9
20260905055739 78 339 0.0 0.0 0.00 0.00 0.00 90 1021.0
20260905055235 78 344 0.0 0.0 0.00 0.00 0.00 89 1020.9
20260905054730 78 328 0.0 0.0 0.00 0.00 0.00 89 1021.0
20260905054226 78 359 0.0 0.0 0.00 0.00 0.00 89 1021.0
20260905053726 78 359 0.0 0.0 0.00 0.00 0.00 88 1021.2
20260905053221 79 359 0.0 0.0 0.00 0.00 0.00 88 1021.2
20260905052720 79 349 0.0 0.0 0.00 0.00 0.00 88 1021.2
20260905052215 79 347 0.0 0.0 0.00 0.00 0.00 88 1021.2
20260905051715 79 347 0.0 0.0 0.00 0.00 0.00 87 1021.2
20260905051212 79 2 1.0 1.0 0.00 0.00 0.00 86 1021.3
20260905050708 79 329 1.0 2.0 0.00 0.00 0.00 86 1021.3
20260905050205 79 305 0.0 1.0 0.00 0.00 0.00 86 1021.4
20260905045704 79 237 1.0 1.0 0.00 0.00 0.00 86 1021.2
20260905045159 79 348 0.0 1.0 0.00 0.00 0.00 86 1021.5
20260905044655 79 222 0.0 0.0 0.00 0.00 0.00 86 1021.4